Owosso, MI

7:27 AM EDT on April 23, 2017 (GMT -0400)
Owosso

Weather History for KRNP - March, 2013

Change the Weather History Date:

Sunday, March 3, 2013

  Actual Average (KFNT) Record (KFNT)
Temperature  
Mean Temperature 22 °F -  
Max Temperature 29 °F 37 °F 68 °F (1974)
Min Temperature 14 °F 23 °F -16 °F (2014)
Degree Days  
Heating Degree Days 44    
Moisture  
Dew Point 13 °F    
Average Humidity 68    
Maximum Humidity 85    
Minimum Humidity 49    
Precipitation  
Precipitation 0.00 in - - ()
Sea Level Pressure  
Sea Level Pressure 30.03 in    
Wind  
Wind Speed 6 mph (WNW)    
Max Wind Speed 13 mph    
Max Gust Speed 18 mph    
Visibility 10 miles    
Events Snow    
Averages and records for this station are not official NWS values.
T = Trace of Precipitation, MM = Missing Value Source: NWS Daily Summary

Daily Weather History Graph

Daily Weather History Graph

Search for Another Location

Airport or City:

Trip Planner

Search our weather history database for the weather conditions in past years. The results will help you decide how hot, cold, wet, or windy it might be!

Date:

Astronomy

Mar. 03, 2013 Rise Set
Actual Time 7:08 AM EST 6:28 PM EST
Civil Twilight 6:40 AM EST 6:57 PM EST
Nautical Twilight 6:07 AM EST 7:29 PM EST
Astronomical Twilight 5:34 AM EST 8:02 PM EST
Moon 12:15 AM EST (3/3) 10:13 AM EST (3/3)
Length of Visible Light 12h 16m
Length of Day
11h 19m
Waning Gibbous, 64% of the Moon is Illuminated
Mar 3
Waning Gibbous
Mar 4
Last Quarter
Mar 11
New
Mar 19
First Quarter
Mar 27
Full

Hourly Weather History & Observations

Time (EST) Temp. Windchill Dew Point Humidity Pressure Visibility Wind Dir Wind Speed Gust Speed Precip Events Conditions
12:15 AM 23.2 °F 16.0 °F 14.7 °F 70% 30.05 in 10.0 mi WNW 5.8 mph - N/A   Overcast
12:34 AM 23.0 °F 15.8 °F 14.9 °F 71% 30.05 in 10.0 mi NW 5.8 mph - N/A   Overcast
12:55 AM 22.8 °F 16.7 °F 14.9 °F 72% 30.05 in 10.0 mi NW 4.6 mph - N/A Snow Light Snow
1:14 AM 22.6 °F - 14.9 °F 72% 30.05 in 10.0 mi Calm Calm - N/A   Overcast
1:35 AM 21.0 °F 16.2 °F 14.0 °F 74% 30.05 in 10.0 mi WNW 3.5 mph - N/A   Scattered Clouds
1:55 AM 19.6 °F 11.7 °F 13.3 °F 77% 30.06 in 10.0 mi WNW 5.8 mph - N/A Snow Light Snow
2:14 AM 18.7 °F 11.9 °F 13.1 °F 79% 30.06 in 10.0 mi West 4.6 mph - N/A   Scattered Clouds
2:35 AM 18.1 °F 10.0 °F 12.7 °F 79% 30.05 in 10.0 mi West 5.8 mph - N/A   Scattered Clouds
2:55 AM 17.6 °F 10.7 °F 12.7 °F 81% 30.04 in 10.0 mi WNW 4.6 mph - N/A Snow Light Snow
3:14 AM 17.8 °F 12.5 °F 12.6 °F 80% 30.04 in 10.0 mi WNW 3.5 mph - N/A   Clear
3:35 AM 16.9 °F 11.5 °F 11.8 °F 81% 30.03 in 10.0 mi WNW 3.5 mph - N/A   Clear
3:54 AM 16.7 °F 11.2 °F 12.0 °F 82% 30.03 in 10.0 mi WNW 3.5 mph - N/A   Clear
4:15 AM 16.3 °F 9.2 °F 11.7 °F 82% 30.04 in 10.0 mi West 4.6 mph - N/A   Clear
4:35 AM 16.3 °F 9.2 °F 11.5 °F 81% 30.04 in 10.0 mi West 4.6 mph - N/A   Clear
4:54 AM 15.8 °F 8.6 °F 11.3 °F 82% 30.04 in 10.0 mi West 4.6 mph - N/A   Clear
5:15 AM 15.8 °F 10.2 °F 11.3 °F 82% 30.04 in 10.0 mi West 3.5 mph - N/A   Clear
5:35 AM 15.6 °F - 11.3 °F 83% 30.04 in 10.0 mi Calm Calm - N/A   Clear
5:54 AM 14.9 °F 9.2 °F 10.8 °F 84% 30.04 in 10.0 mi West 3.5 mph - N/A   Clear
6:15 AM 14.5 °F - 10.4 °F 84% 30.04 in 10.0 mi Calm Calm - N/A   Clear
6:34 AM 14.9 °F 7.5 °F 11.1 °F 85% 30.04 in 10.0 mi West 4.6 mph - N/A   Clear
6:55 AM 15.6 °F 8.3 °F 11.7 °F 84% 30.04 in 10.0 mi West 4.6 mph - N/A   Clear
7:15 AM 14.9 °F 6.1 °F 10.9 °F 84% 30.04 in 10.0 mi West 5.8 mph - N/A   Clear
7:34 AM 15.8 °F 6.1 °F 11.5 °F 83% 30.04 in 10.0 mi West 6.9 mph - N/A   Clear
7:55 AM 17.2 °F 6.8 °F 11.8 °F 79% 30.05 in 10.0 mi West 8.1 mph - N/A   Clear
8:15 AM 18.3 °F 7.3 °F 11.8 °F 76% 30.05 in 10.0 mi WNW 9.2 mph - N/A   Clear
8:34 AM 19.4 °F 9.5 °F 12.0 °F 73% 30.04 in 10.0 mi WNW 8.1 mph - N/A   Clear
8:55 AM 20.3 °F 9.8 °F 12.0 °F 70% 30.05 in 10.0 mi WNW 9.2 mph - N/A   Clear
9:15 AM 21.2 °F 11.7 °F 12.0 °F 68% 30.04 in 10.0 mi WNW 8.1 mph - N/A   Clear
9:34 AM 21.9 °F 11.7 °F 12.0 °F 66% 30.05 in 10.0 mi NNW 9.2 mph - N/A   Clear
9:55 AM 21.4 °F 11.9 °F 11.8 °F 67% 30.05 in 10.0 mi NW 8.1 mph - N/A   Clear
10:15 AM 21.2 °F 14.9 °F 11.7 °F 67% 30.05 in 10.0 mi NNW 4.6 mph - N/A   Clear
10:34 AM 21.4 °F 12.8 °F 11.7 °F 66% 30.04 in 10.0 mi NNW 6.9 mph - N/A   Clear
10:55 AM 22.1 °F 15.9 °F 11.8 °F 65% 30.04 in 10.0 mi NW 4.6 mph - N/A   Clear
11:14 AM 24.4 °F 15.6 °F 12.6 °F 61% 30.04 in 10.0 mi NW 8.1 mph - N/A   Scattered Clouds
11:35 AM 24.4 °F 14.9 °F 12.4 °F 60% 30.03 in 10.0 mi NW 9.2 mph - N/A   Mostly Cloudy
11:55 AM 25.2 °F 15.7 °F 11.8 °F 57% 30.04 in 10.0 mi NW 9.2 mph - N/A   Mostly Cloudy
12:14 PM 25.0 °F 14.2 °F 11.8 °F 57% 30.03 in 10.0 mi NW 11.5 mph - N/A   Scattered Clouds
12:35 PM 25.3 °F 16.7 °F 12.7 °F 59% 30.03 in 10.0 mi NW 8.1 mph - N/A   Mostly Cloudy
12:55 PM 25.3 °F 14.1 °F 12.9 °F 59% 30.02 in 10.0 mi NW 12.7 mph 16.1 mph N/A   Overcast
1:14 PM 25.5 °F 16.2 °F 12.9 °F 59% 30.02 in 10.0 mi NW 9.2 mph - N/A   Overcast
1:35 PM 25.7 °F 17.1 °F 13.1 °F 59% 30.01 in 10.0 mi WNW 8.1 mph - N/A   Overcast
1:55 PM 26.1 °F 15.6 °F 13.8 °F 60% 30.01 in 10.0 mi WNW 11.5 mph - N/A   Overcast
2:15 PM 26.2 °F 17.1 °F 13.3 °F 58% 30.00 in 10.0 mi NNW 9.2 mph - N/A   Overcast
2:35 PM 27.1 °F 18.9 °F 13.8 °F 57% 30.00 in 10.0 mi NNW 8.1 mph - N/A   Overcast
2:54 PM 27.5 °F 18.6 °F 14.2 °F 57% 30.00 in 10.0 mi NW 9.2 mph - N/A   Overcast
3:15 PM 27.5 °F 18.6 °F 14.0 °F 57% 30.00 in 10.0 mi West 9.2 mph - N/A   Overcast
3:34 PM 28.0 °F 18.1 °F 14.4 °F 57% 30.00 in 10.0 mi West 11.5 mph 16.1 mph N/A   Overcast
3:55 PM 28.4 °F 18.5 °F 14.0 °F 55% 30.00 in 10.0 mi West 11.5 mph 18.4 mph N/A   Overcast
4:15 PM 29.5 °F 21.8 °F 13.3 °F 51% 30.00 in 10.0 mi NW 8.1 mph - N/A   Overcast
4:55 PM 29.7 °F 19.6 °F 12.7 °F 49% 30.00 in 10.0 mi West 12.7 mph - N/A   Mostly Cloudy
5:15 PM 29.1 °F 20.0 °F 13.1 °F 51% 30.00 in 10.0 mi WNW 10.4 mph - N/A   Mostly Cloudy
5:34 PM 28.8 °F 20.9 °F 13.1 °F 52% 30.00 in 10.0 mi NW 8.1 mph - N/A   Mostly Cloudy
5:55 PM 28.9 °F 25.2 °F 13.8 °F 53% 30.01 in 10.0 mi WNW 3.5 mph - N/A   Mostly Cloudy
6:15 PM 28.2 °F 21.0 °F 13.1 °F 53% 30.01 in 10.0 mi WNW 6.9 mph - N/A   Mostly Cloudy
6:55 PM 26.6 °F 20.0 °F 13.6 °F 58% 30.02 in 10.0 mi NW 5.8 mph - N/A   Clear
7:15 PM 26.2 °F 17.8 °F 13.5 °F 59% 30.02 in 10.0 mi WNW 8.1 mph - N/A   Clear
7:35 PM 25.5 °F 19.9 °F 13.1 °F 59% 30.02 in 10.0 mi West 4.6 mph - N/A   Clear
7:55 PM 24.8 °F 17.9 °F 13.1 °F 61% 30.02 in 10.0 mi WNW 5.8 mph - N/A   Clear
8:14 PM 24.3 °F 18.4 °F 13.1 °F 63% 30.03 in 10.0 mi West 4.6 mph - N/A   Clear
8:35 PM 24.8 °F 20.5 °F 13.1 °F 61% 30.03 in 10.0 mi West 3.5 mph - N/A   Clear
8:55 PM 23.4 °F 17.4 °F 12.9 °F 64% 30.04 in 10.0 mi WNW 4.6 mph - N/A   Clear
9:14 PM 23.7 °F - 13.5 °F 65% 30.04 in 10.0 mi Calm Calm - N/A   Clear
9:35 PM 22.3 °F 17.6 °F 12.4 °F 66% 30.04 in 10.0 mi WNW 3.5 mph - N/A   Clear
9:54 PM 22.8 °F 18.2 °F 13.1 °F 66% 30.04 in 10.0 mi WNW 3.5 mph - N/A   Clear
10:15 PM 21.4 °F 16.6 °F 12.4 °F 68% 30.04 in 10.0 mi WNW 3.5 mph - N/A   Clear
10:35 PM 22.5 °F 17.8 °F 12.7 °F 66% 30.04 in 10.0 mi NW 3.5 mph - N/A   Clear
10:54 PM 21.4 °F 16.6 °F 12.0 °F 67% 30.04 in 10.0 mi WNW 3.5 mph - N/A   Clear
11:15 PM 21.4 °F 15.1 °F 11.3 °F 65% 30.04 in 10.0 mi WNW 4.6 mph - N/A   Clear
11:35 PM 21.0 °F 13.4 °F 11.5 °F 67% 30.04 in 10.0 mi NW 5.8 mph - N/A   Clear
11:54 PM 20.7 °F - 10.9 °F 66% 30.05 in 10.0 mi Calm Calm - N/A   Clear